Jefferson, GA

2:35 PM EDT on September 26, 2017 (GMT -0400)
Jefferson

Weather History for K19A - January, 2013

Change the Weather History Date:

Monday, January 28, 2013

  Actual Average (KWDR) Record (KWDR)
Temperature  
Mean Temperature 46 °F -  
Max Temperature 50 °F 52 °F 75 °F (1975)
Min Temperature 41 °F 29 °F 4 °F (1986)
Degree Days  
Heating Degree Days 20    
Moisture  
Dew Point 31 °F    
Average Humidity 61    
Maximum Humidity 100    
Minimum Humidity 46    
Precipitation  
Precipitation 0.00 in - - ()
Sea Level Pressure  
Sea Level Pressure 30.37 in    
Wind  
Wind Speed 1 mph (East)    
Max Wind Speed 4 mph    
Max Gust Speed -    
Visibility 7 miles    
Events Rain    
Averages and records for this station are not official NWS values.
T = Trace of Precipitation, MM = Missing Value Source: NWS Daily Summary

Daily Weather History Graph

Daily Weather History Graph

Search for Another Location

Airport or City:

Trip Planner

Search our weather history database for the weather conditions in past years. The results will help you decide how hot, cold, wet, or windy it might be!

Date:

Astronomy

Jan. 28, 2013 Rise Set
Actual Time 7:34 AM EST 6:00 PM EST
Civil Twilight 7:07 AM EST 6:27 PM EST
Nautical Twilight 6:37 AM EST 6:57 PM EST
Astronomical Twilight 6:07 AM EST 7:27 PM EST
Moon 7:47 PM EST (1/28) 8:05 AM EST (1/28)
Length of Visible Light 11h 19m
Length of Day
10h 26m
Full, 98% of the Moon is Illuminated
Jan 28
Full
Feb 3
Last Quarter
Feb 10
New
Feb 17
First Quarter
Feb 25
Full

Hourly Weather History & Observations

Time (EST) Temp. Windchill Dew Point Humidity Pressure Visibility Wind Dir Wind Speed Gust Speed Precip Events Conditions
12:15 AM 41.0 °F 39.0 °F 24.8 °F 53% 30.41 in 10.0 mi ENE 3.5 mph - N/A   Clear
12:35 AM 41.0 °F - 24.8 °F 53% 30.41 in 10.0 mi Calm Calm - N/A   Clear
12:55 AM 41.0 °F 39.0 °F 24.8 °F 53% 30.41 in 10.0 mi ENE 3.5 mph - N/A   Clear
1:15 AM 41.0 °F - 24.8 °F 53% 30.43 in 10.0 mi Calm Calm - N/A   Clear
1:35 AM 41.0 °F - 24.8 °F 53% 30.43 in 10.0 mi Calm Calm - N/A   Mostly Cloudy
1:55 AM 41.0 °F - 24.8 °F 53% 30.42 in 10.0 mi Calm Calm - N/A   Overcast
2:15 AM 41.0 °F - 24.8 °F 53% 30.41 in 10.0 mi Calm Calm - N/A   Overcast
2:55 AM 42.8 °F - 23.0 °F 46% 30.42 in 10.0 mi Calm Calm - N/A   Overcast
3:15 AM 42.8 °F - 24.8 °F 49% 30.43 in 10.0 mi Calm Calm - N/A   Overcast
3:55 AM 42.8 °F - 23.0 °F 46% 30.43 in 10.0 mi Calm Calm - N/A   Overcast
4:15 AM 42.8 °F - 24.8 °F 49% 30.41 in 10.0 mi Calm Calm - N/A   Overcast
4:35 AM 42.8 °F 41.1 °F 23.0 °F 46% 30.40 in 10.0 mi East 3.5 mph - N/A   Overcast
4:55 AM 42.8 °F - 23.0 °F 46% 30.39 in 10.0 mi Calm Calm - N/A   Overcast
5:15 AM 42.8 °F - 23.0 °F 46% 30.40 in 10.0 mi Calm Calm - N/A   Overcast
5:35 AM 42.8 °F - 23.0 °F 46% 30.41 in 10.0 mi Calm Calm - N/A   Overcast
5:55 AM 42.8 °F - 23.0 °F 46% 30.41 in 10.0 mi Calm Calm - N/A   Overcast
6:15 AM 42.8 °F - 24.8 °F 49% 30.42 in 10.0 mi Calm Calm - N/A   Overcast
6:35 AM 42.8 °F - 24.8 °F 49% 30.41 in 10.0 mi Calm Calm - N/A   Overcast
6:55 AM 41.0 °F - 26.6 °F 57% 30.41 in 10.0 mi Calm Calm - N/A Rain Rain
7:15 AM 41.0 °F - 28.4 °F 61% 30.42 in 10.0 mi Calm Calm - N/A   Overcast
7:35 AM 41.0 °F - 28.4 °F 61% 30.42 in 10.0 mi Calm Calm - N/A   Overcast
7:55 AM 41.0 °F - 26.6 °F 57% 30.42 in 10.0 mi Calm Calm - N/A   Overcast
8:15 AM 41.0 °F - 26.6 °F 57% 30.43 in 10.0 mi Calm Calm - N/A   Overcast
8:35 AM 41.0 °F - 26.6 °F 57% 30.43 in 10.0 mi Calm Calm - N/A   Overcast
8:55 AM 42.8 °F - 26.6 °F 53% 30.43 in 10.0 mi Calm Calm - N/A   Overcast
9:15 AM 42.8 °F - 26.6 °F 53% 30.43 in 10.0 mi Calm Calm - N/A   Overcast
9:35 AM 42.8 °F 41.1 °F 26.6 °F 53% 30.43 in 10.0 mi East 3.5 mph - N/A   Overcast
9:55 AM 42.8 °F - 26.6 °F 53% 30.43 in 10.0 mi Calm Calm - N/A   Overcast
10:15 AM 42.8 °F - 26.6 °F 53% 30.43 in 10.0 mi Calm Calm - N/A   Overcast
10:35 AM 42.8 °F 41.1 °F 28.4 °F 57% 30.43 in 10.0 mi SE 3.5 mph - N/A   Overcast
10:55 AM 44.6 °F - 30.2 °F 57% 30.42 in 7.0 mi Calm Calm - N/A   Overcast
11:15 AM 44.6 °F - 30.2 °F 57% 30.42 in 10.0 mi Calm Calm - N/A   Overcast
11:35 AM 44.6 °F 43.1 °F 30.2 °F 57% 30.42 in 7.0 mi ESE 3.5 mph - N/A   Overcast
11:55 AM 44.6 °F 43.1 °F 32.0 °F 61% 30.41 in 7.0 mi ESE 3.5 mph - N/A   Overcast
12:15 PM 46.4 °F - 32.0 °F 57% 30.40 in 7.0 mi Calm Calm - N/A   Overcast
12:35 PM 46.4 °F 45.2 °F 32.0 °F 57% 30.38 in 7.0 mi East 3.5 mph - N/A   Overcast
12:55 PM 46.4 °F - 32.0 °F 57% 30.37 in 7.0 mi Calm Calm - N/A   Overcast
1:15 PM 46.4 °F - 32.0 °F 57% 30.36 in 7.0 mi Calm Calm - N/A   Overcast
1:35 PM 46.4 °F - 32.0 °F 57% 30.35 in 7.0 mi Calm Calm - N/A   Overcast
1:55 PM 46.4 °F - 32.0 °F 57% 30.34 in 7.0 mi Calm Calm - N/A   Overcast
2:15 PM 48.2 °F - 32.0 °F 54% 30.33 in 7.0 mi Calm Calm - N/A   Overcast
2:35 PM 50.0 °F - 32.0 °F 50% 30.31 in 7.0 mi Calm Calm - N/A   Overcast
2:55 PM 50.0 °F - 33.8 °F 54% 30.31 in 5.0 mi Calm Calm - N/A   Haze
3:15 PM 50.0 °F - 33.8 °F 54% 30.31 in 5.0 mi Calm Calm - N/A   Haze
3:35 PM 50.0 °F - 33.8 °F 54% 30.30 in 5.0 mi Calm Calm - N/A   Haze
3:55 PM 50.0 °F - 33.8 °F 54% 30.31 in 5.0 mi Calm Calm - N/A   Haze
4:15 PM 50.0 °F - 33.8 °F 54% 30.31 in 5.0 mi NW 3.5 mph - N/A   Haze
4:35 PM 50.0 °F - 33.8 °F 54% 30.31 in 5.0 mi Calm Calm - N/A   Haze
5:15 PM 50.0 °F - 35.6 °F 58% 30.31 in 5.0 mi Calm Calm - N/A   Haze
5:35 PM 50.0 °F - 35.6 °F 58% 30.30 in 5.0 mi Calm Calm - N/A   Haze
5:55 PM 50.0 °F - 35.6 °F 58% 30.31 in 5.0 mi Calm Calm - N/A   Haze
6:15 PM 50.0 °F - 35.6 °F 58% 30.30 in 7.0 mi Calm Calm - N/A   Overcast
6:35 PM 50.0 °F - 35.6 °F 58% 30.31 in 7.0 mi Calm Calm - N/A   Overcast
6:55 PM 46.4 °F - 35.6 °F 66% 30.31 in 5.0 mi Calm Calm - N/A   Haze
7:15 PM 46.4 °F - 35.6 °F 66% 30.31 in 5.0 mi Calm Calm - N/A   Haze
7:35 PM 46.4 °F - 35.6 °F 66% 30.31 in 5.0 mi Calm Calm - N/A   Haze
7:55 PM 46.4 °F - 35.6 °F 66% 30.31 in 5.0 mi Calm Calm - N/A   Haze
8:15 PM 44.6 °F - 39.2 °F 81% 30.31 in 5.0 mi Calm Calm - N/A   Haze
8:35 PM 42.8 °F - 39.2 °F 87% 30.30 in 4.0 mi Calm Calm - N/A   Clear
8:55 PM 42.8 °F - 37.4 °F 81% 30.30 in 4.0 mi Calm Calm - N/A   Clear
9:15 PM 42.8 °F - 41.0 °F 93% 30.30 in 4.0 mi Calm Calm - N/A   Clear
9:35 PM 42.8 °F - 41.0 °F 93% 30.29 in 3.0 mi Calm Calm - N/A   Clear
9:55 PM 41.0 °F - 39.2 °F 93% 30.30 in 3.0 mi Calm Calm - N/A   Clear
10:15 PM 42.8 °F - 41.0 °F 93% 30.29 in 2.0 mi Calm Calm - N/A   Clear
10:35 PM 41.0 °F - 41.0 °F 100% 30.29 in 1.8 mi Calm Calm - N/A   Mist
10:55 PM 41.0 °F - 41.0 °F 100% 30.29 in 1.0 mi Calm Calm - N/A   Mist
11:15 PM 42.8 °F - 41.0 °F 93% 30.28 in 1.8 mi Calm Calm - N/A   Mist
11:35 PM 42.8 °F - 42.8 °F 100% 30.28 in 2.5 mi Calm Calm - N/A   Clear
11:55 PM 41.0 °F - 41.0 °F 100% 30.28 in 1.0 mi Calm Calm - N/A   Mist